Overview Statistics Trail Chart Weather Telemetry Raw packets
 

This is the latest recevied weather packets stored in our database for station/object KK7MLS-13. If no packets are shown the sender has not sent any weather packets the latest 10 day(s).

<< 27 28 29 30 31 32 33 >>
Time Temp. Humidity Pressure Rain* Wind** Luminosity Snow
1788493915 13.33° C 91% 1010.6 hPa 0 mm - 0 W/m² -
1788493613 13.33° C 92% 1010.6 hPa 0 mm - 0 W/m² -
1788493309 13.33° C 92% 1010.6 hPa 0 mm - 0 W/m² -
1788493005 13.33° C 92% 1010.4 hPa 0 mm - 0 W/m² -
1788492702 13.33° C 91% 1010.4 hPa 0 mm - 0 W/m² -
1788492398 13.33° C 91% 1010 hPa 0 mm - 0 W/m² -
1788492097 13.33° C 91% 1010.4 hPa 0 mm - 0 W/m² -
1788491795 13.33° C 91% 1010.2 hPa 0 mm - 0 W/m² -
1788491491 13.33° C 90% 1010.4 hPa 0 mm - 0 W/m² -
1788491187 13.33° C 90% 1010.2 hPa 0 mm - 0 W/m² -
1788490883 13.33° C 90% 1010.1 hPa 0 mm - 0 W/m² -
1788490579 13.33° C 90% 1010.1 hPa 0 mm - 0 W/m² -
1788490279 13.33° C 89% 1010 hPa 0 mm - 1 W/m² -
1788489974 13.33° C 89% 1010 hPa 0 mm - 1 W/m² -
1788489670 13.89° C 89% 1009.9 hPa 0 mm - 2 W/m² -
1788489366 13.89° C 88% 1009.9 hPa 0 mm - 4 W/m² -
1788489061 13.89° C 87% 1010 hPa 0 mm - 5 W/m² -
1788488756 13.89° C 87% 1009.9 hPa 0 mm - 8 W/m² -
1788488453 14.44° C 86% 1010 hPa 0 mm - 11 W/m² -
1788488148 14.44° C 86% 1009.9 hPa 0 mm - 15 W/m² -
1788487843 14.44° C 83% 1009.9 hPa 0 mm - 18 W/m² -
1788487538 14.44° C 83% 1010.1 hPa 0 mm - 22 W/m² -
1788487232 15° C 84% 1010 hPa 0 mm - 27 W/m² -
1788486927 15° C 82% 1010.1 hPa 0 mm - 28 W/m² -
1788486626 15° C 84% 1010 hPa 0 mm - 34 W/m² -

* Rain latest hour (hover to see other rain measurements)
** Current wind speed in m/s (hover to see current wind gust speed)